DMSP 5D-2 F13 DEB, 40450

Orbit data source: Space-Track

DMSP 5D-2 F13 DEB, 40450 is space debris in SSO originally from a launch on Fri, 24 Mar 1995 UTC launched from the Air Force Western Test Range (AFWTR). Debris objects in space refer to the collection of defunct objects orbiting the Earth. Examples of debris include non-operational satellites, rocket bodies, and fragments generated from explosions, collisions, or faulty payload assembly.

Loading next visibility...
Identifier
40450, 1995-015BC
Orbit
SSO
Country
Flag of USUS
Related business
Manufacturer
Unknown
Mission
Spacecraft
Bus & Motor
Unknown
Mass
Unknown
Launch date (UTC)
1995-03-24 (31 years ago)
Launch vehicle
Unknown
Launch site
Air Force Western Test Range (AFWTR)
Object type
Payload
Rocket body
Debris
Shape & HBR
Unknown shape, 0.1 m
Radar Cross Section
Small (<0.1 m²)

Expand to show TLE details & history
Last TLE update: 16 hours ago

TLE from 16 hours ago
0 DMSP 5D-2 F13 DEB
1 40450U 95015BC  25286.79217136  .00002918  00000-0  11279-2 0  9994
2 40450  98.6580 310.0495 0012050 339.6087  20.4613 14.30853936551219
Epoch: 2025-10-13T19:00Z
TLE epoch observation values (Epoch: 2025-10-13T19:00:43.605Z)
Latitude
-0.00003°
Longitude
2.27795°
Altitude
783.717 km
Speed
7.466 km/s
True Right ascension
20h 40m 11s
True Declination
0° 00' 00"
Sunlit
Object was in daylight at epoch
Visualization orbit readout
Latitude
Unknown
Longitude
Unknown
Altitude
Unknown
Speed
Unknown
Apparent Right ascension
Unknown
Apparent Declination
Unknown
Sunlit
N/A
Visualization observer readout
Local Sidereal Time
05:42:59
Azimuth
Unknown
Elevation
Unknown
Doppler factor
Unknown
Orbital elements
Apogee altitude
794.652 km
Perigee altitude
777.387 km
Semi-major axis
7,164.156 km
Eccentricity
0.00121
Inclination
98.658°
RAAN
310.0495°
Arg. of periapsis
339.6087°
True anomaly
20.50964°
Mean anomaly
20.4613°
Eccentric anomaly
20.48546°
Mean motion
3.57928 °/min
Orbital period
100.58 mins
BSTAR
0.0011279

Documentation

Showing up to 5 results
|